Find Starlink 37751

NORAD ID: 100491 Int'l Des: 2026-196 Owner: SPXS Country: US Constellation: starlink operational

Current View

Loading 3D Globe...

About Starlink 37751

Starlink 37751 (NORAD 100491) is a starlink constellation satellite launched Aug 25, 2026 by SPXS of US. with a mass of 575.00 kg.

Upcoming Passes

Passes for default location (London). Set your location on the main map for personalized predictions.

Altitude History

Loading altitude history...

Two-Line Element Set

1 A0491U 26196U 26247.67396730 -.00958309 28616-3 -26714-2 0 9994
2 A0491 53.1592 320.9486 0000548 37.6037 322.5029 15.93013962 2853
Epoch: Sep 4, 2026 • Age: 22 hours

Current Status

Altitude 305.6 km
Apogee / Perigee N/A
Velocity 7.72 km/s
Sub-Earth Point -22.98°S, 42.09°W
Launch Date Aug 25, 2026
Age 11 days
Type internet

Technical Details

Classification Payload
Mass 575.00 kg
Dry Mass 530.00 kg
Total Mass 575.00 kg
Length 0.30 m
Diameter 4.10 m
Span 29.00 m
Shape Box + pan
Manufacturer SPXS
Bus Type Starlink V2MO
Phase Status In Orbit
Owner/State SPXS/US

Most Searched